KRUPKA Weather Reports


time (UTC)temp
C
wind
direction
speed
KPH
gust
KPH
rain 1hr
cm
rain 24hr
cm
rain mn
cm
humidity
%
barometer
mb
20260507192003 5 17 11.3 17.7 0.00 0.00 0.00 95
20260507191504 5 353 14.5 25.7 0.00 0.00 0.00 95
20260507191003 5 8 17.7 32.2 0.00 0.00 0.00 95
20260507190503 5 1 14.5 25.7 0.00 0.00 0.00 95
20260507190005 5 4 11.3 32.2 0.00 0.00 0.00 95
20260507185503 5 358 14.5 25.7 0.00 0.00 0.00 95
20260507185003 5 350 20.9 29.0 0.00 0.00 0.00 95
20260507184503 5 355 17.7 29.0 0.00 0.00 0.00 95
20260507184003 5 2 17.7 29.0 0.00 0.00 0.00 95
20260507183502 5 350 14.5 32.2 0.00 0.00 0.00 95
20260507183003 5 355 17.7 32.2 0.00 0.00 0.00 95
20260507182503 5 6 14.5 25.7 0.00 0.00 0.00 95
20260507182005 5 355 20.9 35.4 0.00 0.00 0.00 95
20260507181504 5 9 17.7 43.5 0.00 0.00 0.00 95
20260507181002 5 358 20.9 35.4 0.00 0.00 0.00 95
20260507180504 5 3 20.9 29.0 0.00 0.00 0.00 95
20260507180003 5 7 14.5 25.7 0.00 0.00 0.00 95
20260507175503 6 358 14.5 25.7 0.00 0.00 0.00 95
20260507175004 6 11 17.7 32.2 0.00 0.00 0.00 95
20260507174510 6 6 17.7 29.0 0.00 0.00 0.00 95
20260507174003 6 1 17.7 32.2 0.00 0.00 0.00 94
20260507173504 6 1 14.5 32.2 0.00 0.00 0.00 95
20260507173003 6 353 14.5 25.7 0.00 0.00 0.00 95
20260507172503 6 356 17.7 29.0 0.00 0.00 0.00 95
20260507172005 6 13 17.7 29.0 0.00 0.00 0.00 94
20260507171503 6 1 17.7 25.7 0.00 0.00 0.00 94
20260507171003 6 3 11.3 17.7 0.00 0.00 0.00 94
20260507170504 6 354 14.5 25.7 0.00 0.00 0.00 94
20260507170004 6 4 11.3 20.9 0.00 0.00 0.00 94
20260507165504 6 6 11.3 14.5 0.00 0.00 0.00 94
20260507165004 6 16 6.4 14.5 0.00 0.00 0.00 94
20260507164503 6 358 11.3 17.7 0.00 0.00 0.00 95
20260507164004 6 5 14.5 20.9 0.00 0.00 0.00 95
20260507163503 6 358 14.5 20.9 0.00 0.00 0.00 94
20260507163004 6 355 17.7 29.0 0.00 0.00 0.00 95
20260507162504 6 7 14.5 29.0 0.00 0.00 0.00 95
20260507162003 6 353 14.5 25.7 0.00 0.00 0.00 94
20260507161504 6 359 17.7 32.2 0.00 0.00 0.00 95
20260507161004 6 6 20.9 29.0 0.00 0.00 0.00 95
20260507160503 6 6 17.7 20.9 0.00 0.00 0.00 95
20260507160004 6 4 14.5 29.0 0.00 0.00 0.00 95
20260507155503 6 355 17.7 25.7 0.00 0.00 0.00 95
20260507155003 6 2 25.7 35.4 0.00 0.00 0.00 95
20260507154503 6 5 20.9 40.2 0.00 0.00 0.00 95
20260507154003 6 1 20.9 35.4 0.00 0.00 0.00 95
20260507153722 6 14 25.7 35.4 0.00 0.00 0.00 95
20260507153504 6 14 25.7 35.4 0.00 0.00 0.00 95
20260507153008 7 8 17.7 29.0 0.00 0.00 0.00 94
20260507152504 7 1 20.9 32.2 0.00 0.00 0.00 94
20260507152005 7 359 14.5 29.0 0.00 0.00 0.00 94
20260507151504 7 4 17.7 25.7 0.00 0.00 0.00 94
20260507151003 7 9 17.7 35.4 0.00 0.00 0.00 94
20260507150504 7 7 14.5 29.0 0.00 0.00 0.00 94
20260507150004 7 1 17.7 29.0 0.00 0.00 0.00 94
20260507145503 7 9 20.9 35.4 0.00 0.00 0.00 94
20260507145002 7 4 17.7 29.0 0.00 0.00 0.00 94
20260507144504 7 13 17.7 29.0 0.00 0.00 0.00 94
20260507144004 7 5 14.5 25.7 0.00 0.00 0.00 94
20260507143504 7 358 17.7 20.9 0.00 0.00 0.00 94
20260507143003 7 8 17.7 25.7 0.00 0.00 0.00 94
20260507142504 7 354 14.5 25.7 0.00 0.00 0.00 94
20260507142006 7 2 14.5 20.9 0.00 0.00 0.00 94
20260507141504 7 353 14.5 25.7 0.00 0.00 0.00 93
20260507141004 7 354 14.5 29.0 0.00 0.00 0.00 93
20260507140503 7 21 14.5 25.7 0.00 0.00 0.00 94
20260507140003 7 7 17.7 25.7 0.00 0.00 0.00 94
20260507135504 7 357 11.3 17.7 0.00 0.00 0.00 94
20260507135003 7 11 14.5 20.9 0.00 0.00 0.00 93
20260507134503 7 13 11.3 20.9 0.00 0.00 0.00 93
20260507134003 7 16 6.4 11.3 0.00 0.00 0.00 93
20260507133503 7 352 3.2 14.5 0.00 0.00 0.00 93
20260507133003 7 353 11.3 14.5 0.00 0.00 0.00 93
20260507132503 7 23 6.4 14.5 0.00 0.00 0.00 93
20260507132003 7 5 6.4 14.5 0.00 0.00 0.00 93
20260507131504 7 356 6.4 14.5 0.00 0.00 0.00 93
20260507131004 7 2 6.4 11.3 0.00 0.00 0.00 93
20260507130502 7 359 6.4 11.3 0.00 0.00 0.00 93
20260507130004 7 6 6.4 11.3 0.00 0.00 0.00 93
20260507125503 7 14 11.3 11.3 0.00 0.00 0.00 93
20260507125003 7 4 6.4 11.3 0.00 0.00 0.00 93
20260507124503 7 13 11.3 14.5 0.00 0.00 0.00 93
20260507124003 7 8 6.4 11.3 0.00 0.00 0.00 93
20260507123503 7 352 6.4 11.3 0.00 0.00 0.00 93
20260507123004 7 8 3.2 11.3 0.00 0.00 0.00 93
20260507122503 7 5 6.4 11.3 0.00 0.00 0.00 93
20260507122005 7 356 3.2 11.3 0.00 0.00 0.00 93
20260507121504 7 359 6.4 6.4 0.00 0.00 0.00 93
20260507121003 7 347 6.4 11.3 0.00 0.00 0.00 93
20260507120502 7 348 11.3 14.5 0.00 0.00 0.00 93
20260507120003 7 359 6.4 11.3 0.00 0.00 0.00 93
20260507115502 7 3 11.3 14.5 0.00 0.00 0.00 93
20260507115003 7 28 6.4 14.5 0.00 0.00 0.00 93
20260507114503 7 14 11.3 14.5 0.00 0.00 0.00 93
20260507114003 7 3 6.4 14.5 0.00 0.00 0.00 93
20260507113503 7 339 11.3 20.9 0.00 0.00 0.00 92
20260507113004 7 350 11.3 14.5 0.00 0.00 0.00 92
20260507112504 7 351 11.3 14.5 0.00 0.00 0.00 92
20260507112006 7 339 6.4 11.3 0.00 0.00 0.00 93
20260507111504 7 272 6.4 11.3 0.00 0.00 0.00 93
20260507111004 7 261 3.2 3.2 0.00 0.00 0.00 93
20260507110503 7 309 0.0 3.2 0.00 0.00 0.00 92
20260507110003 7 357 6.4 11.3 0.00 0.00 0.00 93
20260507105511 7 332 3.2 6.4 0.00 0.00 0.00 93
20260507105003 7 347 6.4 6.4 0.00 0.00 0.00 93
20260507104504 7 349 6.4 11.3 0.00 0.00 0.00 93
20260507104003 7 2 6.4 11.3 0.00 0.00 0.00 92
20260507103503 7 351 6.4 14.5 0.00 0.00 0.00 92
20260507103003 7 357 6.4 11.3 0.00 0.00 0.00 93
20260507102504 7 359 11.3 14.5 0.00 0.00 0.00 93
20260507102010 7 345 11.3 17.7 0.00 0.00 0.00 92
20260507101503 7 348 11.3 17.7 0.00 0.00 0.00 92
20260507101003 8 347 6.4 11.3 0.00 0.00 0.00 92
20260507100502 8 302 0.0 3.2 0.00 0.00 0.00 92
20260507100004 8 310 0.0 3.2 0.00 0.00 0.00 93
20260507095503 8 270 0.0 3.2 0.00 0.00 0.00 93
20260507095004 8 209 3.2 3.2 0.00 0.00 0.00 93
20260507094004 8 225 0.0 0.0 0.00 0.00 0.00 93
20260507093503 8 235 0.0 3.2 0.00 0.00 0.00 93
20260507093004 8 248 3.2 3.2 0.00 0.00 0.00 93
20260507092504 8 228 3.2 3.2 0.00 0.00 0.00 93
20260507092006 8 266 0.0 3.2 0.00 0.00 0.00 94
20260507091503 8 248 0.0 3.2 0.00 0.00 0.00 94
20260507091003 8 190 3.2 3.2 0.00 0.00 0.00 94
20260507090504 8 178 3.2 6.4 0.00 0.00 0.00 95
20260507090004 8 188 6.4 6.4 0.00 0.00 0.00 95
20260507085502 8 179 3.2 6.4 0.00 0.00 0.00 93
20260507085003 8 155 0.0 3.2 0.00 0.00 0.00 93
20260507084503 8 175 0.0 0.0 0.00 0.00 0.00 92
20260507084004 7 185 0.0 0.0 0.00 0.00 0.00 92
20260507083504 7 210 0.0 0.0 0.00 0.00 0.00 92
20260507083003 8 169 0.0 0.0 0.00 0.00 0.00 92
20260507082504 8 194 0.0 0.0 0.00 0.00 0.00 92
20260507082005 7 194 0.0 0.0 0.00 0.00 0.00 92
20260507081504 8 194 0.0 0.0 0.00 0.00 0.00 92
20260507081003 7 194 0.0 0.0 0.00 0.00 0.00 92
20260507080502 7 168 0.0 0.0 0.00 0.00 0.00 92
20260507080004 7 194 0.0 0.0 0.00 0.00 0.00 92
20260507075503 8 194 0.0 3.2 0.00 0.00 0.00 92
20260507075003 7 175 0.0 0.0 0.00 0.00 0.00 91
20260507074503 8 176 0.0 0.0 0.00 0.00 0.00 91
20260507074004 8 167 0.0 0.0 0.00 0.00 0.00 91
20260507073503 8 108 0.0 0.0 0.00 0.00 0.00 91
20260507073003 10 108 0.0 0.0 0.00 0.00 0.00 91
20260507072503 10 65 0.0 0.0 0.00 0.00 0.00 91
20260507072006 10 21 0.0 0.0 0.00 0.00 0.00 92
20260507071002 8 38 0.0 0.0 0.00 0.00 0.00 91
20260507070503 8 81 0.0 0.0 0.00 0.00 0.00 91
20260507070005 8 92 0.0 0.0 0.00 0.00 0.00 91
20260507065503 8 71 0.0 0.0 0.00 0.00 0.00 91
20260507065004 8 333 0.0 3.2 0.00 0.00 0.00 91
20260507064511 8 342 0.0 3.2 0.00 0.00 0.00 91
20260507064003 8 279 0.0 3.2 0.00 0.00 0.00 91
20260507063508 8 347 0.0 3.2 0.00 0.00 0.00 91
20260507063003 8 352 3.2 6.4 0.00 0.00 0.00 91
20260507062503 8 38 3.2 6.4 0.00 0.00 0.00 91
20260507062005 8 4 0.0 0.0 0.00 0.00 0.00 91
20260507061504 7 358 3.2 6.4 0.00 0.00 0.00 91
20260507061004 7 332 3.2 11.3 0.00 0.00 0.00 91
20260507060503 7 12 3.2 6.4 0.00 0.00 0.00 91
20260507060004 7 349 3.2 11.3 0.00 0.00 0.00 91
20260507055508 7 3 3.2 6.4 0.00 0.00 0.00 91
20260507055004 7 353 6.4 11.3 0.00 0.00 0.00 91
20260507054503 7 13 3.2 11.3 0.00 0.00 0.00 91
20260507054003 7 16 3.2 11.3 0.00 0.00 0.00 91
20260507053504 7 13 6.4 6.4 0.00 0.00 0.00 91
20260507053003 7 26 6.4 11.3 0.00 0.00 0.00 91
20260507052504 7 39 3.2 6.4 0.00 0.00 0.00 91
20260507052005 7 17 3.2 3.2 0.00 0.00 0.00 91
20260507051504 7 13 0.0 3.2 0.00 0.00 0.00 91
20260507051003 7 359 0.0 0.0 0.00 0.00 0.00 90
20260507050503 7 354 0.0 0.0 0.00 0.00 0.00 91
20260507050004 7 355 0.0 3.2 0.00 0.00 0.00 91
20260507045503 7 348 0.0 3.2 0.00 0.00 0.00 91
20260507045004 7 348 3.2 3.2 0.00 0.00 0.00 91
20260507044504 7 356 3.2 6.4 0.00 0.00 0.00 90
20260507044003 7 349 3.2 6.4 0.00 0.00 0.00 91
20260507043504 7 1 0.0 3.2 0.00 0.00 0.00 91
20260507043003 7 22 0.0 3.2 0.00 0.00 0.00 91
20260507042503 7 19 3.2 3.2 0.00 0.00 0.00 91
20260507042003 7 23 3.2 3.2 0.00 0.00 0.00 91
20260507041509 7 24 3.2 3.2 0.00 0.00 0.00 91
20260507041003 7 31 3.2 3.2 0.00 0.00 0.00 90
20260507040504 7 53 3.2 3.2 0.00 0.00 0.00 90
20260507040004 7 60 0.0 0.0 0.00 0.00 0.00 90
20260507035503 7 50 0.0 0.0 0.00 0.00 0.00 90
20260507035004 7 27 0.0 3.2 0.00 0.00 0.00 90
20260507034503 7 33 3.2 3.2 0.00 0.00 0.00 90
20260507034003 7 21 3.2 3.2 0.00 0.00 0.00 90
20260507033504 7 40 3.2 3.2 0.00 0.00 0.00 90
20260507033003 7 55 3.2 3.2 0.00 0.00 0.00 90
20260507032503 7 4 0.0 0.0 0.00 0.00 0.00 90
20260507032006 7 330 0.0 3.2 0.00 0.00 0.00 90
20260507031503 7 341 0.0 3.2 0.00 0.00 0.00 90
20260507031001 7 46 0.0 0.0 0.00 0.00 0.00 90
20260507030503 7 349 3.2 3.2 0.00 0.00 0.00 90
20260507030003 7 29 3.2 3.2 0.00 0.00 0.00 90
20260507025503 7 15 3.2 3.2 0.00 0.00 0.00 89
20260507025003 7 341 3.2 3.2 0.00 0.00 0.00 89
20260507024504 7 261 3.2 3.2 0.00 0.00 0.00 89
20260507024003 7 20 0.0 0.0 0.00 0.00 0.00 89
20260507023503 7 18 3.2 3.2 0.00 0.00 0.00 89
20260507023004 7 359 0.0 0.0 0.00 0.00 0.00 89
20260507022503 7 279 0.0 0.0 0.00 0.00 0.00 89
20260507022004 7 272 0.0 0.0 0.00 0.00 0.00 89
20260507021504 7 274 0.0 0.0 0.00 0.00 0.00 89
20260507021003 7 8 0.0 0.0 0.00 0.00 0.00 89
20260507020503 7 32 0.0 0.0 0.00 0.00 0.00 89
20260507020003 7 317 0.0 0.0 0.00 0.00 0.00 89
20260507015503 7 303 6.4 6.4 0.00 0.00 0.00 89
20260507015004 7 281 3.2 6.4 0.00 0.00 0.00 89
20260507014503 7 292 3.2 3.2 0.00 0.00 0.00 89
20260507014004 7 286 3.2 6.4 0.00 0.00 0.00 89
20260507013503 7 264 3.2 6.4 0.00 0.00 0.00 90
20260507013005 7 305 3.2 6.4 0.00 0.00 0.00 90
20260507012504 7 353 6.4 14.5 0.00 0.00 0.00 90
20260507011503 7 351 11.3 17.7 0.00 0.00 0.00 90
20260507011004 7 353 11.3 17.7 0.00 0.00 0.00 90
20260507010503 7 344 11.3 17.7 0.00 0.00 0.00 89
20260507010004 7 1 6.4 14.5 0.00 0.00 0.00 90
20260507005502 7 357 14.5 20.9 0.00 0.00 0.00 90
20260507005002 7 338 14.5 20.9 0.00 0.00 0.00 90
20260507004504 7 354 11.3 17.7 0.00 0.00 0.00 90
20260507004003 7 1 14.5 20.9 0.00 0.00 0.00 90
20260507003503 7 356 14.5 17.7 0.00 0.00 0.00 90
20260507003003 7 356 11.3 20.9 0.00 0.00 0.00 89
20260507002503 7 348 14.5 20.9 0.00 0.00 0.00 91
20260507002005 7 352 14.5 20.9 0.00 0.00 0.00 89
20260507001504 7 350 14.5 17.7 0.00 0.00 0.00 89
20260507001003 7 6 11.3 20.9 0.00 0.00 0.00 89
20260507000503 7 1 11.3 17.7 0.00 0.00 0.00 89
20260507000004 7 4 14.5 25.7 0.00 0.00 0.00 89
20260506235504 7 355 14.5 20.9 0.00 0.00 0.00 89
20260506235003 7 358 14.5 20.9 0.00 0.00 0.00 89
20260506234503 7 359 14.5 20.9 0.00 0.00 0.00 89
20260506234004 7 2 14.5 25.7 0.00 0.00 0.00 89
20260506233503 7 347 14.5 20.9 0.00 0.00 0.00 89
20260506233003 8 9 11.3 17.7 0.00 0.00 0.00 88
20260506232507 8 355 11.3 20.9 0.00 0.00 0.00 88
20260506232005 8 11 3.2 6.4 0.00 0.00 0.00 89
20260506231503 8 67 0.0 3.2 0.00 0.00 0.00 89
20260506231003 8 134 0.0 3.2 0.00 0.00 0.00 90
20260506230504 10 144 3.2 3.2 0.00 0.00 0.00 92
20260506230003 10 150 3.2 6.4 0.00 0.00 0.00 93
20260506225503 10 163 6.4 11.3 0.00 0.00 0.00 92
20260506225003 10 164 3.2 3.2 0.00 0.00 0.00 90
20260506224503 10 204 0.0 3.2 0.00 0.00 0.00 86
20260506224003 10 220 3.2 3.2 0.00 0.00 0.00 86
20260506223503 10 246 0.0 3.2 0.00 0.00 0.00 85
20260506223003 10 246 3.2 3.2 0.00 0.00 0.00 85
20260506222506 10 234 3.2 3.2 0.00 0.00 0.00 85
20260506222009 10 224 3.2 3.2 0.00 0.00 0.00 85
20260506221504 10 244 3.2 3.2 0.00 0.00 0.00 85
20260506221002 10 254 3.2 3.2 0.00 0.00 0.00 85
20260506220504 10 92 0.0 3.2 0.00 0.00 0.00 84
20260506220004 10 58 0.0 0.0 0.00 0.00 0.00 84
20260506215503 11 357 3.2 6.4 0.00 0.00 0.00 85
20260506215004 11 20 6.4 11.3 0.00 0.00 0.00 85
20260506214503 11 14 3.2 6.4 0.00 0.00 0.00 85
20260506214004 11 33 6.4 17.7 0.00 0.00 0.00 86
20260506213503 11 36 11.3 11.3 0.00 0.00 0.00 85
20260506213004 11 357 6.4 11.3 0.00 0.00 0.00 84
20260506212503 11 29 6.4 11.3 0.00 0.00 0.00 84
20260506212005 11 37 11.3 17.7 0.00 0.00 0.00 85
20260506211504 11 19 14.5 17.7 0.00 0.00 0.00 83
20260506211002 11 14 11.3 20.9 0.00 0.00 0.00 81
20260506210503 11 345 6.4 14.5 0.00 0.00 0.00 81
20260506210003 11 7 11.3 17.7 0.00 0.00 0.00 81
20260506205503 11 16 11.3 14.5 0.00 0.00 0.00 81
20260506205003 11 359 11.3 17.7 0.00 0.00 0.00 80
20260506204504 11 10 6.4 17.7 0.00 0.00 0.00 80
20260506204003 11 18 3.2 6.4 0.00 0.00 0.00 79
20260506203503 11 13 6.4 14.5 0.00 0.00 0.00 79
20260506203004 11 10 6.4 14.5 0.00 0.00 0.00 78
20260506202005 11 7 6.4 11.3 0.00 0.00 0.00 78
20260506201510 11 5 3.2 6.4 0.00 0.00 0.00 78
20260506201002 11 27 3.2 11.3 0.00 0.00 0.00 78
20260506200504 12 20 11.3 17.7 0.00 0.00 0.00 78
20260506200004 12 19 6.4 14.5 0.00 0.00 0.00 79
20260506195502 12 13 6.4 17.7 0.00 0.00 0.00 77
20260506195011 12 3 6.4 14.5 0.00 0.00 0.00 77
20260506194503 12 15 11.3 14.5 0.00 0.00 0.00 76
20260506194003 12 5 6.4 14.5 0.00 0.00 0.00 76
20260506193504 12 34 6.4 17.7 0.00 0.00 0.00 77
20260506193004 12 25 14.5 25.7 0.00 0.00 0.00 77
20260506192503 12 5 14.5 32.2 0.00 0.00 0.00 76